Regional Weather Roundup
Issued by NWS

Home | Current Version | Previous Version | Graphics & Text | Print | Product List | Glossary Off
Versions: 1 2 3 4 5 6 7 8 9 10 11 12 13 14 15 16 17 18 19 20 21 22 23 24 25 26 27 28 29 30 31 32 33 34 35 36 37 38 39 40 41 42 43 44 45 46 47 48 49 50

000
ASUS43 KDTX 210701
RWRMI
MICHIGAN HOURLY REGIONAL WEATHER ROUNDUP
NATIONAL WEATHER SERVICE DETROIT/PONTIAC MI
300 AM EDT TUE OCT 21 2014

NOTE: "FAIR" INDICATES FEW OR NO CLOUDS BELOW 12,000 FEET WITH NO
SIGNIFICANT WEATHER AND/OR OBSTRUCTION TO VISIBILITY.

MIZ047>049-052>055-059>063-066>070-074>076-081>083-210800-
SOUTHEAST LOWER MICHIGAN

CITY           SKY/WX    TMP DP  RH WIND       PRES   REMARKS
ADRIAN         CLOUDY    49  44  83 N5        29.91R
ALMA           CLOUDY    47  43  84 NW7       29.93R
ANN ARBOR      CLOUDY    49  42  77 N9        29.89S
BAD AXE        LGT RAIN  47  47 100 N12G18    29.88S
CARO           CLOUDY    48  44  86 NW7G17    29.89R
DETROIT CITY   CLOUDY    51  44  77 NW8       29.89R
DETROIT        CLOUDY    49  44  83 NW7       29.89S
FLINT          CLOUDY    50  43  77 NW12      29.91R
GROSSE ILE     CLOUDY    48  45  87 NW6       29.87S
HILLSDALE      CLOUDY    48  45  89 NW7       29.91R
HOWELL         CLOUDY    47  43  86 NW7       29.90R

CITY           SKY/WX    TMP DP  RH WIND       PRES   REMARKS
JACKSON        CLOUDY    47  43  86 NW6       29.91R
LAMBERTVILLE   CLOUDY    50  45  81 NW7       29.90R
LANSING        CLOUDY    47  42  83 NW9       29.93S
LAPEER         CLOUDY    47  43  85 N6        29.89R
MASON          CLOUDY    47  42  84 NW9       29.91S
MONROE         CLOUDY    48  45  87 NW5       29.88R
MT. CLEMENS    CLOUDY    49  48  99 NW7       29.86R
PONTIAC        CLOUDY    47  43  86 NW8       29.88R
PORT HOPE        N/A     49  45  86 N15G21    29.87R
PORT HURON     CLOUDY    46  46 100 NW7       29.87S FOG
TRI CITIES     CLOUDY    49  43  80 NW10      29.91F
TROY           CLOUDY    49  45  83 NW8       29.90R
SAGINAW HB     CLOUDY    48  43  81 N8        29.90S
$$
MIZ043>046-050>051-056>058-064>065-071>073-077>080-210800-
SOUTHWEST LOWER MICHIGAN

CITY           SKY/WX    TMP DP  RH WIND       PRES   REMARKS
BATTLE CREEK   CLOUDY    47  41  80 NW7       29.94S
BENTON HARBOR  CLOUDY    49  45  86 VRB7      29.97S
BIG RAPIDS     CLOUDY    45  45 100 NW6       29.94S
COLDWATER      CLOUDY    48  43  84 NW8       29.93R
FREMONT        CLOUDY    45  42  89 NW7       29.97R
HOLLAND        CLOUDY    49  42  77 N6        29.98S
GRAND RAPIDS   CLOUDY    48  43  82 NW8       29.95S
IONIA          CLOUDY    48  42  80 NW5       29.93R
KALAMAZOO      CLOUDY    47  41  80 NW12      29.95R
LUDINGTON      LGT RAIN  46  44  93 N7        29.99S
MARSHALL       CLOUDY    46  42  83 NW3       29.92S
MOUNT PLEASANT CLOUDY    47  42  85 NW6       29.93R
MUSKEGON       CLOUDY    48  42  80 N12       29.99R
SOUTH HAVEN    CLOUDY    48  45  90 N5        29.97S
$$
MIZ016>042-210800-
NORTHERN LOWER MICHIGAN

CITY           SKY/WX    TMP DP  RH WIND       PRES   REMARKS
ALPENA         CLOUDY    45  41  86 N13       29.94R
BEAVER ISLAND  CLOUDY    46  40  80 NE10      30.01R
BELLAIRE       CLOUDY    46  44  91 N6        29.97R
CADILLAC       CLOUDY    44  43  97 NW6       29.93S FOG
CHARLEVOIX     CLOUDY    47  42  82 NE13      30.01R
FRANKFORT      DRIZZLE   48  42  81 N8        29.98S
GAYLORD        CLOUDY    43  40  89 NE10      29.95R
GRAYLING       CLOUDY    46  46  98 NE8       29.95R FOG
HARBOR SPRINGS CLOUDY    45  40  81 N8        29.98R
HOUGHTON LAKE  CLOUDY    45  43  93 N8        29.93R
MANISTEE       CLOUDY    46  41  81 N8        29.99R
OSCODA         CLOUDY    45  44  95 N12       29.90S
PELLSTON       CLOUDY    45  39  79 N12       29.99R
TRAVERSE CITY  CLOUDY    48  44  86 N7        29.95R
$$
MIZ007>008-015-210800-
EASTERN UPPER MICHIGAN

CITY           SKY/WX    TMP DP  RH WIND       PRES   REMARKS
KINROSS        CLOUDY    43  39  87 N6        30.00R
MACKINAC ISLAN CLOUDY    44  37  77 NE12G17   29.99R
NEWBERRY       CLOUDY    41  38  88 N8        30.02R
S. S. MARIE    CLOUDY    43  35  73 VRB5      30.00R
MUNISING         N/A     46  40  79 N21       30.06R
$$
MIZ004>006-011>014-085-210800-
CENTRAL UPPER MICHIGAN

CITY           SKY/WX    TMP DP  RH WIND       PRES   REMARKS
MANISTIQUE     CLOUDY    42  40  92 N8        30.03R
ESCANABA       CLOUDY    43  39  87 NW6       30.06R
MENOMINEE      CLOUDY    45  37  76 N8        30.05R
SAWYER-GWINN   LGT RAIN  39  38  95 N13G20    30.07R WCI  32
$$
MIZ001>003-009>011-084-210800-
WESTERN UPPER MICHIGAN

CITY           SKY/WX    TMP DP  RH WIND       PRES   REMARKS
IRON MOUNTAIN  CLOUDY    41  37  86 N12       30.07R
HOUGHTON       CLOUDY    39  32  76 NE8       30.13R WCI  33
COPPER HARBOR    N/A     42  36  79 MISG      30.15R
IRONWOOD       CLOUDY    41  36  81 N5        30.12R
$$

ABBREVIATIONS USED IN REMARKS
   TC - TEMPERATURE IN CELSIUS
  WCI - WIND CHILL INDEX
   HX - HEAT INDEX
  VSB - VISIBILITY



USA.gov is the U.S. government's official web portal to all federal, state and local government web resources and services.